TimeCST,TemperatureF,Dew PointF,Humidity,Sea Level PressureIn,VisibilityMPH,Wind Direction,Wind SpeedMPH,Gust SpeedMPH,PrecipitationIn,Events,Conditions,WindDirDegrees,DateUTC
12:15 AM,32.0,26.6,80,29.65,10.0,West,27.6,35.7,N/A,,Overcast,280,2012-12-06 06:15:00
12:35 AM,30.2,24.8,80,29.66,10.0,WNW,27.6,38.0,N/A,,Mostly Cloudy,290,2012-12-06 06:35:00
12:55 AM,28.4,24.8,86,29.67,10.0,WNW,24.2,40.3,N/A,,Mostly Cloudy,290,2012-12-06 06:55:00
1:15 AM,26.6,23.0,86,29.68,10.0,WNW,31.1,42.6,N/A,,Overcast,290,2012-12-06 07:15:00
1:35 AM,26.6,23.0,86,29.69,10.0,WNW,20.7,36.8,N/A,,Overcast,290,2012-12-06 07:35:00
1:55 AM,24.8,21.2,86,29.70,10.0,West,26.5,34.5,N/A,,Scattered Clouds,280,2012-12-06 07:55:00
2:15 AM,24.8,19.4,80,29.71,10.0,WNW,26.5,36.8,N/A,,Clear,290,2012-12-06 08:15:00
2:35 AM,23.0,17.6,80,29.73,10.0,WNW,26.5,36.8,N/A,,Clear,300,2012-12-06 08:35:00
2:55 AM,23.0,17.6,80,29.74,10.0,WNW,24.2,32.2,N/A,,Clear,300,2012-12-06 08:55:00
3:15 AM,23.0,17.6,80,29.75,10.0,NW,25.3,31.1,N/A,,Clear,310,2012-12-06 09:15:00
3:35 AM,23.0,17.6,80,29.77,10.0,WNW,20.7,25.3,N/A,,Clear,300,2012-12-06 09:35:00
3:55 AM,21.2,17.6,86,29.78,10.0,WNW,23.0,-,N/A,,Scattered Clouds,290,2012-12-06 09:55:00
4:15 AM,21.2,17.6,86,29.78,10.0,NW,21.9,29.9,N/A,,Scattered Clouds,310,2012-12-06 10:15:00
4:35 AM,21.2,17.6,86,29.79,10.0,NW,20.7,32.2,N/A,,Mostly Cloudy,310,2012-12-06 10:35:00
4:55 AM,21.2,17.6,86,29.80,10.0,WNW,24.2,29.9,N/A,,Mostly Cloudy,300,2012-12-06 10:55:00
5:15 AM,19.4,15.8,86,29.80,10.0,WNW,25.3,29.9,N/A,,Mostly Cloudy,300,2012-12-06 11:15:00
5:35 AM,19.4,15.8,86,29.81,10.0,WNW,20.7,28.8,N/A,,Scattered Clouds,300,2012-12-06 11:35:00
5:55 AM,19.4,15.8,86,29.81,10.0,WNW,19.6,27.6,N/A,,Scattered Clouds,300,2012-12-06 11:55:00
6:15 AM,19.4,15.8,86,29.83,10.0,NW,19.6,26.5,N/A,,Mostly Cloudy,310,2012-12-06 12:15:00
6:35 AM,17.6,14.0,86,29.84,10.0,WNW,19.6,27.6,N/A,,Partly Cloudy,300,2012-12-06 12:35:00
6:55 AM,17.6,14.0,86,29.85,10.0,NW,17.3,24.2,N/A,,Clear,310,2012-12-06 12:55:00
7:15 AM,15.8,14.0,93,29.86,10.0,WNW,19.6,-,N/A,,Clear,300,2012-12-06 13:15:00
7:55 AM,15.8,14.0,93,29.87,10.0,WNW,17.3,-,N/A,,Clear,300,2012-12-06 13:55:00
8:15 AM,15.8,12.2,86,29.88,10.0,WNW,18.4,-,N/A,,Clear,290,2012-12-06 14:15:00
8:35 AM,15.8,12.2,86,29.89,10.0,WNW,13.8,23.0,N/A,,Clear,290,2012-12-06 14:35:00
9:15 AM,15.8,12.2,86,29.90,10.0,WNW,13.8,-,N/A,,Clear,290,2012-12-06 15:15:00
9:35 AM,17.6,14.0,86,29.90,10.0,West,15.0,-,N/A,,Clear,280,2012-12-06 15:35:00
9:55 AM,17.6,14.0,86,29.92,10.0,WNW,13.8,-,N/A,,Partly Cloudy,290,2012-12-06 15:55:00
10:15 AM,19.4,14.0,80,29.92,10.0,WNW,13.8,-,N/A,,Mostly Cloudy,300,2012-12-06 16:15:00
10:35 AM,19.4,15.8,86,29.92,10.0,WNW,15.0,19.6,N/A,,Overcast,300,2012-12-06 16:35:00
10:55 AM,21.2,15.8,80,29.92,10.0,WNW,13.8,-,N/A,,Overcast,290,2012-12-06 16:55:00
11:15 AM,23.0,17.6,80,29.92,10.0,WNW,15.0,-,N/A,,Overcast,300,2012-12-06 17:15:00
11:35 AM,23.0,19.4,86,29.92,10.0,WNW,15.0,20.7,N/A,,Overcast,300,2012-12-06 17:35:00
11:55 AM,24.8,19.4,80,29.92,10.0,WNW,15.0,21.9,N/A,,Overcast,300,2012-12-06 17:55:00
12:15 PM,24.8,21.2,86,29.91,10.0,WNW,20.7,28.8,N/A,,Overcast,290,2012-12-06 18:15:00
12:35 PM,26.6,21.2,80,29.91,10.0,WNW,15.0,23.0,N/A,,Overcast,300,2012-12-06 18:35:00
12:55 PM,26.6,23.0,86,29.91,10.0,WNW,16.1,-,N/A,,Overcast,300,2012-12-06 18:55:00
1:15 PM,26.6,23.0,86,29.91,10.0,WNW,13.8,-,N/A,,Overcast,300,2012-12-06 19:15:00
1:35 PM,28.4,23.0,80,29.91,10.0,WNW,16.1,-,N/A,,Overcast,290,2012-12-06 19:35:00
1:55 PM,28.4,23.0,80,29.90,10.0,WNW,20.7,25.3,N/A,,Overcast,290,2012-12-06 19:55:00
2:15 PM,28.4,23.0,80,29.92,10.0,NW,17.3,24.2,N/A,,Overcast,310,2012-12-06 20:15:00
2:35 PM,26.6,23.0,86,29.91,10.0,NW,11.5,16.1,N/A,,Overcast,310,2012-12-06 20:35:00
2:55 PM,26.6,23.0,86,29.92,10.0,WNW,10.4,-,N/A,,Overcast,290,2012-12-06 20:55:00
3:15 PM,26.6,23.0,86,29.92,10.0,WNW,13.8,-,N/A,,Overcast,290,2012-12-06 21:15:00
3:35 PM,26.6,23.0,86,29.92,10.0,WNW,9.2,18.4,N/A,,Overcast,300,2012-12-06 21:35:00
3:55 PM,26.6,23.0,86,29.92,10.0,WNW,15.0,-,N/A,,Overcast,290,2012-12-06 21:55:00
4:15 PM,26.6,21.2,80,29.92,10.0,WNW,13.8,-,N/A,,Mostly Cloudy,290,2012-12-06 22:15:00
4:35 PM,24.8,21.2,86,29.93,10.0,WNW,12.7,-,N/A,,Partly Cloudy,290,2012-12-06 22:35:00
4:55 PM,23.0,19.4,86,29.93,10.0,WNW,10.4,-,N/A,,Partly Cloudy,290,2012-12-06 22:55:00
5:15 PM,23.0,19.4,86,29.94,10.0,NW,10.4,-,N/A,,Clear,320,2012-12-06 23:15:00
5:35 PM,19.4,17.6,93,29.94,10.0,NW,11.5,-,N/A,,Clear,310,2012-12-06 23:35:00
5:55 PM,19.4,17.6,93,29.94,10.0,NW,10.4,-,N/A,,Clear,310,2012-12-06 23:55:00
6:15 PM,17.6,15.8,93,29.94,10.0,NW,9.2,-,N/A,,Partly Cloudy,310,2012-12-07 00:15:00
6:35 PM,17.6,15.8,93,29.94,10.0,NW,8.1,-,N/A,,Mostly Cloudy,310,2012-12-07 00:35:00
6:55 PM,17.6,15.8,93,29.94,10.0,WNW,8.1,-,N/A,,Overcast,300,2012-12-07 00:55:00
7:15 PM,19.4,17.6,93,29.94,10.0,WNW,6.9,-,N/A,,Mostly Cloudy,290,2012-12-07 01:15:00
7:35 PM,15.8,15.8,100,29.94,10.0,West,5.8,-,N/A,,Partly Cloudy,270,2012-12-07 01:35:00
7:55 PM,15.8,15.8,100,29.93,10.0,WNW,6.9,-,N/A,,Clear,300,2012-12-07 01:55:00
8:35 PM,15.8,14.0,93,29.95,10.0,West,8.1,-,N/A,,Clear,270,2012-12-07 02:35:00
8:55 PM,15.8,14.0,93,29.95,10.0,West,6.9,-,N/A,,Clear,270,2012-12-07 02:55:00
9:15 PM,14.0,14.0,100,29.96,10.0,West,6.9,-,N/A,,Clear,270,2012-12-07 03:15:00
9:35 PM,14.0,14.0,100,29.97,10.0,West,9.2,-,N/A,,Clear,280,2012-12-07 03:35:00
9:55 PM,12.2,10.4,92,29.96,10.0,West,6.9,-,N/A,,Clear,270,2012-12-07 03:55:00
10:15 PM,14.0,14.0,100,29.97,10.0,WNW,8.1,-,N/A,,Clear,290,2012-12-07 04:15:00
10:35 PM,12.2,10.4,92,29.97,10.0,WNW,8.1,-,N/A,,Clear,290,2012-12-07 04:35:00
10:55 PM,14.0,10.4,86,29.97,10.0,NW,6.9,-,N/A,,Clear,320,2012-12-07 04:55:00
11:15 PM,12.2,10.4,92,29.97,10.0,WNW,3.5,-,N/A,,Clear,290,2012-12-07 05:15:00
11:35 PM,12.2,10.4,92,29.97,10.0,WNW,4.6,-,N/A,,Clear,300,2012-12-07 05:35:00
11:55 PM,10.4,10.4,100,29.97,10.0,NW,4.6,-,N/A,,Clear,310,2012-12-07 05:55:00